Regional Weather Roundup
Issued by NWS

Home | Current Version | Previous Version | Text Only | Print | Product List | Glossary On
Versions: 1 2 3 4 5 6 7 8 9 10 11 12 13 14 15 16 17 18 19 20 21 22 23 24 25 26 27 28 29 30 31 32 33 34 35 36 37 38 39 40 41 42 43 44 45 46 47 48 49 50
175
ASUS44 KJAN 201510
RWRMS

MISSISSIPPI HOURLY WEATHER ROUNDUP
NATIONAL WEATHER SERVICE JACKSON MS
1000 AM CDT SAT SEP 20 2014

NOTE: "FAIR: INDICATES FEW OR NO CLOUDS BELOW 12,000 FEET WITH NO
SIGNIFICANT WEATHER AND/OR OBSTRUCTIONS TO VISIBILITY.

MSZ001>002-007>008-010>013-018>021-025>028-034>036-201600-
NORTHWEST MISSISSIPPI

CITY           SKY/WX    TMP DP  RH WIND       PRES   REMARKS
CLARKSDALE     FAIR      79  70  73 CALM      30.08S
CLEVELAND      FAIR      79  70  75 CALM      30.06R
GREENWOOD      SUNNY     80  68  66 SE3       30.07R
GREENVILLE     SUNNY     81  67  62 SE5       30.06R
GRENADA        FAIR      77  68  73 E8        30.09R
OLIVE BRANCH   SUNNY     75  72  88 S10       30.10R
OXFORD         FAIR      73  66  78 SE9       30.12R
TUNICA         SUNNY     79  68  69 S7        30.09R
$$

MSZ003>006-009-014>017-022>024-029>033-037>039-201600-
NORTHEAST MISSISSIPPI

CITY           SKY/WX    TMP DP  RH WIND       PRES   REMARKS
COLUMBUS AFB   SUNNY     77  67  71 SE10      30.11R
CORINTH        FAIR      77  66  69 SE9       30.12R
GOLDN TRIANGLE MOSUNNY   77  64  65 SE12      30.12R
STARKVILLE     FAIR      77  68  73 SE9       30.10S
TUPELO           N/A     77  66  68 S10       30.11R
$$

MSZ040-058-201600-
CENTRAL MISSISSIPPI

CITY           SKY/WX    TMP DP  RH WIND       PRES   REMARKS
JACKSON INTL   SUNNY     80  68  66 SE5       30.06R
JACKSON HAWKNS SUNNY     81  69  67 S5        30.07R
MERIDIAN KEY   SUNNY     78  67  68 E7        30.09R
MERIDIAN NAS   SUNNY     78  67  68 E10       30.10R
RAYMOND        FAIR      81  75  83 CALM      30.07R
VICKSBURG      SUNNY     81  70  69 CALM      30.05R
$$

MSZ059>079-201600-
SOUTH MISSISSIPPI

CITY           SKY/WX    TMP DP  RH WIND       PRES   REMARKS
BROOKHAVEN     FAIR      81  72  74 E3        30.07R
COLUMBIA       FAIR      79  70  73 E10       30.04R
HATTIESBURG    SUNNY     78  69  73 E5        30.06R
MCCOMB         SUNNY     78  69  73 E6        30.05R
NATCHEZ        SUNNY     81  70  69 E6        30.05R
PINE BELT      SUNNY    N/A N/A N/A NE8       30.07R
$$

MSZ080>082-201600-
COASTAL MISSISSIPPI

CITY           SKY/WX    TMP DP  RH WIND       PRES   REMARKS
BILOXI         SUNNY     81  68  63 E12       30.01R
PASCAGOULA     SUNNY     80  69  69 NE10      30.02R
GULFPORT       SUNNY     81  68  64 NE13      30.01R
$$



USA.gov is the U.S. government's official web portal to all federal, state and local government web resources and services.